DM5RC Weather Reports


time (UTC)temp
C
wind
direction
speed
KPH
gust
KPH
rain 1hr
cm
rain 24hr
cm
rain mn
cm
humidity
%
barometer
mb
20260508210830 11 49 1.6 4.8 0.00 0.30 0.05 82 1020.1
20260508210329 11 39 0.0 3.2 0.00 0.30 0.05 82 1020.1
20260508205832 11 40 1.6 3.2 0.00 0.30 0.05 81 1020.1
20260508205332 11 39 0.0 6.4 0.00 0.30 0.05 80 1020.2
20260508204813 11 39 1.6 6.4 0.00 0.30 0.05 80 1020.1
20260508204313 11 46 3.2 6.4 0.00 0.30 0.05 80 1020.1
20260508203816 11 62 3.2 9.7 0.00 0.30 0.05 79 1020.0
20260508203317 11 63 4.8 9.7 0.00 0.30 0.05 79 1020.0
20260508202840 11 48 6.4 9.7 0.00 0.30 0.05 79 1019.9
20260508202336 11 64 4.8 8.0 0.00 0.30 0.05 79 1019.9
20260508201818 11 48 1.6 6.4 0.00 0.30 0.05 79 1020.0
20260508201321 11 48 4.8 6.4 0.00 0.30 0.05 80 1020.0
20260508200824 12 58 3.2 8.0 0.00 0.30 0.05 79 1020.0
20260508200327 12 54 3.2 8.0 0.00 0.30 0.05 79 1020.0
20260508195827 12 47 4.8 8.0 0.00 0.30 0.05 79 1019.9
20260508195330 12 44 4.8 8.0 0.00 0.30 0.05 79 1019.9
20260508194813 12 56 3.2 9.7 0.00 0.30 0.05 79 1019.9
20260508194315 12 53 4.8 8.0 0.00 0.30 0.05 79 1019.9
20260508193819 12 45 4.8 9.7 0.00 0.30 0.05 78 1019.9
20260508193320 12 70 6.4 9.7 0.00 0.30 0.05 78 1019.9
20260508192843 12 39 4.8 9.7 0.00 0.30 0.05 77 1019.8
20260508192326 12 38 6.4 9.7 0.00 0.30 0.05 77 1019.8
20260508191830 12 71 3.2 8.0 0.00 0.30 0.05 76 1019.7
20260508191335 12 32 3.2 8.0 0.00 0.30 0.05 76 1019.7
20260508190839 12 47 4.8 8.0 0.00 0.30 0.05 75 1019.7
20260508190319 12 52 3.2 8.0 0.00 0.30 0.05 75 1019.6
20260508185823 12 16 4.8 8.0 0.00 0.41 0.05 75 1019.6
20260508185327 12 53 4.8 9.7 0.00 0.41 0.05 75 1019.6
20260508184831 12 36 3.2 8.0 0.00 0.41 0.05 74 1019.5
20260508184316 12 42 4.8 8.0 0.00 0.41 0.05 74 1019.6
20260508183819 12 55 4.8 8.0 0.00 0.41 0.05 74 1019.5
20260508183320 12 47 3.2 8.0 0.00 0.41 0.05 74 1019.5
20260508182842 12 46 3.2 8.0 0.00 0.41 0.05 73 1019.5
20260508182323 12 54 3.2 6.4 0.00 0.41 0.05 73 1019.4
20260508181824 12 32 3.2 6.4 0.00 0.41 0.05 73 1019.3
20260508181324 12 32 3.2 8.0 0.00 0.41 0.05 73 1019.3
20260508180822 12 48 3.2 8.0 0.00 0.41 0.05 74 1019.2
20260508180323 12 3 1.6 6.4 0.00 0.41 0.05 75 1019.2
20260508175843 12 41 3.2 9.7 0.00 0.61 0.05 75 1019.1
20260508175322 12 30 3.2 11.3 0.00 0.61 0.05 74 1019.2
20260508174824 12 18 3.2 11.3 0.00 0.61 0.05 74 1019.1
20260508174326 12 32 4.8 9.7 0.00 0.61 0.05 75 1019.1
20260508173829 12 32 3.2 9.7 0.00 0.61 0.05 75 1019.1
20260508173312 12 30 3.2 6.4 0.00 0.61 0.05 75 1019.1
20260508172815 12 41 3.2 6.4 0.00 0.61 0.05 75 1019.1
20260508172317 12 45 4.8 6.4 0.00 0.61 0.05 74 1019.1
20260508171840 12 52 3.2 6.4 0.00 0.61 0.05 74 1019.1
20260508171322 12 44 3.2 9.7 0.00 0.61 0.05 74 1019.0
20260508170824 12 54 4.8 9.7 0.00 0.61 0.05 73 1019.0
20260508170327 12 35 3.2 8.0 0.00 0.61 0.05 73 1019.0
20260508165831 12 70 3.2 11.3 0.00 1.70 0.05 73 1018.9
20260508165315 12 42 4.8 11.3 0.00 1.70 0.05 73 1018.8
20260508164820 12 27 4.8 9.7 0.00 1.70 0.05 74 1018.8
20260508164326 12 64 3.2 8.0 0.00 1.70 0.05 73 1018.9
20260508163832 12 61 3.2 8.0 0.00 1.70 0.05 73 1018.9
20260508163313 12 30 4.8 8.0 0.00 1.70 0.05 72 1018.9
20260508162836 12 51 3.2 8.0 0.00 1.70 0.05 71 1018.9
20260508162338 13 62 4.8 6.4 0.00 1.70 0.05 72 1018.9
20260508161819 13 34 3.2 9.7 0.00 1.70 0.05 72 1018.9
20260508161321 13 29 3.2 9.7 0.00 1.70 0.05 72 1019.0
20260508160823 13 46 3.2 11.3 0.00 1.70 0.05 72 1018.9
20260508160323 13 46 4.8 11.3 0.00 1.70 0.05 71 1019.0
20260508155823 13 21 4.8 8.0 0.00 2.21 0.05 71 1018.9
20260508155326 13 39 3.2 8.0 0.00 2.21 0.05 71 1018.9
20260508154829 13 65 3.2 8.0 0.00 2.21 0.05 71 1018.9
20260508154314 13 62 4.8 9.7 0.00 2.21 0.05 71 1018.9
20260508153817 13 55 8.0 14.5 0.00 2.21 0.05 70 1018.9
20260508153322 13 63 6.4 9.7 0.00 2.21 0.05 70 1018.8
20260508152827 13 58 4.8 12.9 0.00 2.21 0.05 70 1018.8
20260508152330 13 34 6.4 12.9 0.00 2.21 0.05 69 1018.8
20260508151831 13 53 8.0 11.3 0.00 2.21 0.05 68 1018.8
20260508151331 13 56 4.8 9.7 0.00 2.21 0.05 69 1018.8
20260508150829 13 44 4.8 11.3 0.00 2.21 0.05 68 1018.7
20260508150330 13 53 1.6 6.4 0.00 2.21 0.05 68 1018.8
20260508145829 13 53 0.0 3.2 0.00 2.21 0.05 69 1018.8
20260508145330 13 53 1.6 4.8 0.00 2.21 0.05 67 1018.9
20260508144831 13 57 1.6 6.4 0.00 2.21 0.05 67 1018.9
20260508144314 13 58 1.6 6.4 0.00 2.21 0.05 68 1018.9
20260508143838 13 55 1.6 6.4 0.00 2.21 0.05 66 1018.8
20260508143320 13 61 1.6 6.4 0.00 2.21 0.05 67 1018.8
20260508142823 14 50 0.0 4.8 0.00 2.21 0.05 67 1018.9
20260508142326 14 133 1.6 4.8 0.00 2.21 0.05 67 1018.9
20260508141829 14 110 0.0 6.4 0.00 2.21 0.05 68 1018.9
20260508141332 14 49 3.2 6.4 0.00 2.21 0.05 67 1018.9
20260508140835 13 36 0.0 6.4 0.00 2.21 0.05 69 1019.0
20260508140359 13 7 1.6 9.7 0.00 2.21 0.05 70 1018.9
20260508135842 13 23 6.4 9.7 0.00 2.21 0.05 68 1019.0
20260508135322 13 58 4.8 9.7 0.00 2.21 0.05 69 1018.9
20260508134825 13 46 1.6 8.0 0.00 2.21 0.05 69 1018.9
20260508134327 13 33 3.2 6.4 0.00 2.21 0.05 70 1018.9
20260508133830 13 51 3.2 8.0 0.00 2.21 0.05 71 1018.9
20260508133313 13 46 4.8 9.7 0.00 2.21 0.05 71 1018.9
20260508132814 13 8 3.2 9.7 0.00 2.21 0.05 71 1018.9
20260508132318 13 51 1.6 9.7 0.00 2.21 0.05 71 1018.9
20260508131822 13 53 6.4 11.3 0.00 2.21 0.05 69 1018.9
20260508131344 13 68 4.8 11.3 0.00 2.21 0.05 70 1019.0
20260508130825 13 349 3.2 9.7 0.00 2.21 0.05 71 1019.0
20260508130349 13 8 4.8 9.7 0.00 2.21 0.05 69 1019.0
20260508125829 14 49 3.2 11.3 0.00 2.21 0.05 70 1019.1
20260508125329 13 51 3.2 11.3 0.00 2.21 0.05 71 1019.1
20260508124830 14 48 6.4 11.3 0.00 2.21 0.05 70 1019.1
20260508124313 14 44 4.8 8.0 0.00 2.21 0.05 68 1019.2
20260508123817 14 91 1.6 8.0 0.00 2.21 0.05 68 1019.2
20260508123320 14 125 4.8 8.0 0.00 2.21 0.05 68 1019.2
20260508122826 15 57 3.2 9.7 0.00 2.21 0.05 69 1019.2
20260508122327 14 57 3.2 11.3 0.00 2.21 0.05 68 1019.2
20260508121847 14 71 3.2 11.3 0.00 2.21 0.05 71 1019.1
20260508121327 13 49 6.4 11.3 0.00 2.21 0.05 71 1019.1
20260508120828 13 50 6.4 11.3 0.00 2.21 0.05 72 1019.1
20260508120327 13 49 8.0 11.3 0.00 2.21 0.05 69 1019.1
20260508115848 13 38 4.8 9.7 0.00 2.21 0.05 72 1019.2
20260508115328 13 11 4.8 9.7 0.00 2.21 0.05 70 1019.1
20260508114829 13 50 4.8 9.7 0.00 2.21 0.05 70 1019.2
20260508114332 13 45 3.2 8.0 0.00 2.21 0.05 70 1019.2
20260508113814 13 53 3.2 9.7 0.00 2.21 0.05 71 1019.3
20260508113336 13 70 4.8 9.7 0.00 2.21 0.05 70 1019.2
20260508112819 12 346 4.8 9.7 0.00 2.21 0.05 72 1019.3
20260508112322 12 47 1.6 8.0 0.00 2.21 0.05 72 1019.3
20260508111824 12 27 3.2 12.9 0.00 2.21 0.05 72 1019.3
20260508111327 12 46 9.7 12.9 0.00 2.21 0.05 73 1019.3
20260508110830 13 44 6.4 11.3 0.00 2.21 0.05 72 1019.3
20260508110313 12 27 1.6 11.3 0.00 2.21 0.05 74 1019.3
20260508105817 12 46 3.2 11.3 0.00 2.59 0.05 73 1019.4
20260508105321 12 6 4.8 11.3 0.00 2.59 0.05 75 1019.4
20260508104823 12 11 4.8 12.9 0.00 2.59 0.05 76 1019.4
20260508104326 12 39 9.7 12.9 0.00 2.59 0.05 73 1019.4
20260508103828 13 29 4.8 12.9 0.00 2.59 0.05 73 1019.4
20260508103331 12 39 8.0 12.9 0.00 2.59 0.05 73 1019.3
20260508102813 13 1 8.0 11.3 0.00 2.59 0.05 75 1019.3
20260508102315 12 16 6.4 14.5 0.00 2.59 0.05 77 1019.3
20260508101818 12 34 6.4 14.5 0.00 2.59 0.05 77 1019.2
20260508101321 12 27 9.7 14.5 0.00 2.59 0.05 75 1019.3
20260508100824 12 18 6.4 12.9 0.00 2.59 0.05 78 1019.3
20260508100325 12 39 6.4 12.9 0.00 2.59 0.05 77 1019.4
20260508095828 12 354 6.4 11.3 0.00 3.71 0.05 76 1019.4
20260508095329 12 48 4.8 11.3 0.00 3.71 0.05 78 1019.4
20260508094830 12 39 6.4 11.3 0.00 3.71 0.05 77 1019.4
20260508094332 12 53 6.4 9.7 0.00 3.71 0.05 77 1019.4
20260508093816 12 56 4.8 9.7 0.00 3.71 0.05 76 1019.4
20260508093318 12 50 3.2 11.3 0.00 3.71 0.05 78 1019.3
20260508092821 12 47 6.4 11.3 0.00 3.71 0.05 79 1019.3
20260508092324 11 51 3.2 11.3 0.00 3.71 0.05 81 1019.3
20260508091845 11 52 4.8 12.9 0.00 3.71 0.05 81 1019.4
20260508091325 11 52 9.7 12.9 0.00 3.71 0.05 80 1019.4
20260508090825 11 91 3.2 8.0 0.00 3.71 0.05 81 1019.4
20260508090325 11 44 3.2 9.7 0.00 3.71 0.05 80 1019.5
20260508085828 11 338 3.2 9.7 0.00 4.50 0.05 81 1019.5
20260508085329 11 44 3.2 6.4 0.00 4.50 0.05 81 1019.4
20260508084834 11 46 1.6 8.0 0.00 4.50 0.05 82 1019.4
20260508084313 11 45 3.2 8.0 0.00 4.50 0.05 84 1019.3
20260508083813 10 46 3.2 9.7 0.00 4.50 0.05 84 1019.4
20260508083314 10 41 3.2 9.7 0.00 4.50 0.05 86 1019.3
20260508082818 10 58 3.2 9.7 0.00 4.50 0.05 86 1019.3
20260508081823 10 35 3.2 8.0 0.00 4.50 0.05 87 1019.3
20260508081323 10 61 3.2 11.3 0.00 4.50 0.05 87 1019.2
20260508080824 10 57 4.8 12.9 0.00 4.50 0.05 88 1019.2
20260508080344 10 66 3.2 12.9 0.00 4.50 0.05 90 1019.1
20260508075842 9 60 6.4 11.3 0.00 4.50 0.05 90 1019.2
20260508075321 9 70 4.8 11.3 0.00 4.50 0.05 90 1019.2
20260508074821 9 30 3.2 9.7 0.00 4.50 0.05 90 1019.2
20260508074323 9 58 8.0 9.7 0.00 4.50 0.05 90 1019.2
20260508073825 8 43 4.8 9.7 0.00 4.50 0.05 90 1019.2
20260508073326 9 53 4.8 8.0 0.00 4.50 0.05 91 1019.1
20260508072829 8 66 4.8 9.7 0.00 4.50 0.05 91 1019.1
20260508072326 8 61 4.8 9.7 0.00 4.50 0.05 92 1019.0
20260508071828 8 46 4.8 9.7 0.00 4.50 0.05 92 1019.0
20260508071315 8 49 4.8 11.3 0.00 4.50 0.05 92 1019.0
20260508070819 8 31 3.2 11.3 0.00 4.50 0.05 92 1018.9
20260508070322 8 46 4.8 8.0 0.00 4.50 0.05 92 1018.9
20260508065824 8 68 4.8 11.3 0.00 4.60 0.05 92 1018.9
20260508065343 8 45 6.4 11.3 0.00 4.60 0.05 92 1018.8
20260508064823 8 39 4.8 11.3 0.00 4.60 0.05 93 1018.7
20260508064346 8 51 3.2 11.3 0.00 4.60 0.05 93 1018.7
20260508063819 8 23 1.6 9.7 0.00 4.60 0.05 93 1018.6
20260508063321 8 61 3.2 11.3 0.00 4.60 0.05 93 1018.6
20260508062821 8 46 6.4 11.3 0.00 4.60 0.05 93 1018.6
20260508062321 8 36 6.4 11.3 0.00 4.60 0.05 93 1018.5
20260508061822 8 47 3.2 9.7 0.00 4.60 0.05 94 1018.5
20260508061322 8 33 3.2 9.7 0.00 4.60 0.05 93 1018.5
20260508060823 8 62 6.4 12.9 0.00 4.60 0.05 93 1018.4
20260508060346 8 358 6.4 12.9 0.00 4.60 0.05 93 1018.4
20260508055824 8 56 4.8 11.3 0.00 4.60 0.05 93 1018.4
20260508055346 8 82 4.8 9.7 0.00 4.60 0.05 94 1018.4
20260508054828 8 49 3.2 11.3 0.00 4.60 0.05 94 1018.3
20260508054331 7 354 3.2 11.3 0.00 4.60 0.05 94 1018.3
20260508053833 7 65 4.8 12.9 0.00 4.60 0.05 94 1018.2
20260508053313 7 18 4.8 11.3 0.00 4.60 0.05 93 1018.2
20260508052813 7 37 6.4 11.3 0.00 4.60 0.05 94 1018.2
20260508052312 7 46 3.2 12.9 0.00 4.60 0.05 94 1018.2
20260508051833 7 26 6.4 12.9 0.00 4.60 0.05 94 1018.2
20260508051314 7 44 4.8 9.7 0.00 4.60 0.05 93 1018.2
20260508050813 7 42 4.8 12.9 0.00 4.60 0.05 93 1018.3
20260508050330 7 34 4.8 12.9 0.00 4.60 0.05 93 1018.2
20260508045831 7 64 3.2 12.9 0.00 4.80 0.05 93 1018.2
20260508045314 7 51 8.0 12.9 0.00 4.80 0.05 93 1018.1
20260508044816 7 50 8.0 12.9 0.00 4.80 0.05 93 1018.1
20260508044338 7 44 6.4 12.9 0.00 4.80 0.05 93 1018.1
20260508043820 7 51 4.8 12.9 0.00 4.80 0.05 93 1018.0
20260508043343 7 44 4.8 12.9 0.00 4.80 0.05 93 1018.0
20260508042844 7 31 6.4 12.9 0.00 4.80 0.05 93 1018.0
20260508042325 7 49 3.2 9.7 0.00 4.80 0.05 93 1017.9
20260508041829 7 13 4.8 14.5 0.00 4.80 0.05 93 1017.8
20260508041331 7 53 4.8 11.3 0.00 4.80 0.05 93 1017.7
20260508040835 7 57 3.2 8.0 0.00 4.80 0.05 93 1017.7
20260508040317 7 61 3.2 11.3 0.00 4.80 0.05 93 1017.7
20260508035818 7 58 4.8 12.9 0.00 5.31 0.05 93 1017.7
20260508035318 7 18 6.4 12.9 0.00 5.31 0.05 93 1017.7
20260508034822 7 52 4.8 12.9 0.00 5.31 0.05 93 1017.6
20260508034325 7 46 4.8 14.5 0.00 5.31 0.05 94 1017.7
20260508033828 7 39 6.4 14.5 0.00 5.31 0.05 94 1017.6
20260508033352 7 25 1.6 9.7 0.00 5.31 0.05 94 1017.7
20260508032813 7 20 3.2 11.3 0.00 5.31 0.05 94 1017.6
20260508032315 7 337 3.2 12.9 0.00 5.31 0.05 94 1017.6
20260508031837 7 53 3.2 9.7 0.00 5.31 0.05 94 1017.6
20260508031319 7 42 4.8 11.3 0.00 5.31 0.05 94 1017.5
20260508030824 7 61 3.2 11.3 0.00 5.31 0.05 94 1017.5
20260508030348 7 61 4.8 11.3 0.00 5.31 0.05 94 1017.5
20260508025824 7 59 4.8 12.9 0.00 5.99 0.05 94 1017.6
20260508025348 7 45 6.4 12.9 0.00 5.99 0.05 94 1017.5
20260508024830 7 41 4.8 12.9 0.00 5.99 0.05 94 1017.5
20260508024314 7 25 4.8 12.9 0.00 5.99 0.05 94 1017.5
20260508023817 7 57 3.2 12.9 0.00 5.99 0.05 94 1017.5
20260508023319 7 357 3.2 11.3 0.00 5.99 0.05 94 1017.5
20260508022822 7 31 4.8 9.7 0.00 5.99 0.05 94 1017.5
20260508022344 7 43 1.6 9.7 0.00 5.99 0.05 94 1017.5
20260508021825 7 18 3.2 8.0 0.00 5.99 0.05 94 1017.5
20260508021325 7 14 3.2 8.0 0.00 5.99 0.05 94 1017.5
20260508020827 7 340 3.2 8.0 0.00 5.99 0.05 94 1017.5
20260508020314 7 9 3.2 8.0 0.00 5.99 0.05 94 1017.4
20260508015816 7 2 3.2 8.0 0.00 6.60 0.05 94 1017.4
20260508015335 7 24 3.2 9.7 0.00 6.60 0.05 94 1017.4
20260508014816 7 62 3.2 11.3 0.00 6.60 0.05 94 1017.5
20260508014320 7 32 4.8 11.3 0.00 6.60 0.05 94 1017.4
20260508013851 7 55 3.2 6.4 0.00 6.60 0.05 94 1017.4
20260508013314 7 29 1.6 9.7 0.00 6.60 0.05 94 1017.4
20260508012818 7 55 3.2 8.0 0.00 6.60 0.05 94 1017.3
20260508012320 7 57 3.2 12.9 0.00 6.60 0.05 94 1017.3
20260508011822 7 47 6.4 12.9 0.00 6.60 0.05 94 1017.2
20260508011325 7 48 3.2 12.9 0.00 6.60 0.05 94 1017.3
20260508010827 7 31 4.8 12.9 0.00 6.60 0.05 94 1017.2
20260508010328 7 39 3.2 11.3 0.00 6.60 0.05 95 1017.2
20260508005850 7 58 3.2 11.3 0.00 6.60 0.05 94 1017.2
20260508005314 7 7 3.2 9.7 0.00 6.60 0.05 95 1017.2
20260508004845 7 20 4.8 11.3 0.00 6.60 0.05 95 1017.2
20260508004326 7 51 4.8 11.3 0.00 6.60 0.05 95 1017.2
20260508003829 7 34 6.4 11.3 0.00 6.60 0.05 95 1017.1
20260508003330 7 8 4.8 11.3 0.10 6.60 0.05 95 1017.2
20260508002831 7 75 6.4 11.3 0.10 6.60 0.05 95 1017.2
20260508002351 7 8 4.8 11.3 0.10 6.60 0.05 95 1017.2
20260508001830 7 7 4.8 11.3 0.10 6.60 0.05 95 1017.3
20260508001324 7 36 3.2 9.7 0.10 6.60 0.05 95 1017.3
20260508000845 7 54 4.8 9.7 0.10 6.60 0.05 95 1017.3
20260508000327 7 34 3.2 8.0 0.10 6.60 0.05 95 1017.3
20260507235847 7 40 3.2 9.7 0.10 6.60 0.05 95 1017.3
20260507235347 7 76 4.8 9.7 0.10 6.60 0.05 95 1017.3
20260507234826 7 34 4.8 8.0 0.10 6.60 0.05 95 1017.4
20260507234326 7 45 4.8 8.0 0.10 6.60 0.05 95 1017.5
20260507233827 7 53 3.2 8.0 0.10 6.60 0.05 95 1017.5
20260507233350 7 31 1.6 8.0 0.00 6.50 0.03 95 1017.4
20260507232851 7 51 3.2 8.0 0.00 6.50 0.03 95 1017.5
20260507232353 7 54 3.2 8.0 0.00 6.50 0.03 95 1017.5
20260507231814 7 68 3.2 9.7 0.00 6.50 0.03 95 1017.4
20260507231339 7 60 4.8 9.7 0.10 6.50 0.03 95 1017.4
20260507230821 7 50 4.8 9.7 0.10 6.50 0.03 95 1017.5
20260507230324 7 56 1.6 9.7 0.10 6.50 0.03 95 1017.6
20260507225828 7 54 3.2 9.7 0.20 6.50 0.03 95 1017.5
20260507225351 7 61 4.8 9.7 0.20 6.50 0.03 95 1017.5
20260507224813 7 55 3.2 8.0 0.20 6.50 0.03 95 1017.5
20260507223828 7 44 3.2 9.7 0.20 6.50 0.03 95 1017.5
20260507223332 7 51 4.8 9.7 0.20 6.50 0.03 94 1017.5
20260507222814 7 50 3.2 11.3 0.20 6.50 0.03 94 1017.5
20260507222317 7 64 4.8 11.3 0.20 6.50 0.03 94 1017.5
20260507221820 7 60 3.2 11.3 0.10 6.40 0.00 94 1017.5
20260507221343 7 39 3.2 11.3 0.10 6.40 0.00 94 1017.4
20260507220823 7 47 4.8 9.7 0.10 6.40 0.00 94 1017.4
20260507220324 7 65 4.8 9.7 0.10 6.40 0.00 93 1017.4
20260507215826 8 30 4.8 14.5 0.00 6.30 1.27 93 1017.4
20260507215329 8 58 6.4 14.5 0.00 6.30 1.27 93 1017.4
20260507214852 8 54 3.2 9.7 0.00 6.30 1.27 93 1017.3
20260507214314 8 65 3.2 11.3 0.00 6.30 1.27 93 1017.4
20260507213830 8 36 6.4 11.3 0.00 6.30 1.27 93 1017.4
20260507213313 8 61 4.8 11.3 0.00 6.30 1.27 93 1017.3
20260507212815 8 13 3.2 11.3 0.00 6.30 1.27 94 1017.2
20260507212318 8 59 6.4 11.3 0.00 6.30 1.27 94 1017.2
20260507211824 8 9 4.8 14.5 0.00 6.30 1.27 94 1017.1
20260507211328 8 46 6.4 14.5 0.00 6.30 1.27 94 1017.2